Tracking 18793 objects as of 26-September-2017
HD Live streaming from Space Station
objects crossing your sky now

OPS 3367 A

Track OPS 3367 A now!
10-day predictions
OPS 3367 A is classified as:


NORAD ID: 734
Int'l Code: 1964-002B
Perigee: 791.9 km
Apogee: 813.8 km
Inclination: 99.0 °
Period: 100.8 minutes
Semi major axis: 7173 km
RCS: 0.3359 m2 (medium)
Launch date: January 19, 1964
Source: United States (US)
Launch site: AIR FORCE WESTERN TEST RANGE (AFWTR)
aabbcc
Your satellite tracking list
Your tracking list is empty





NASA's NSSDC Master Catalog

Two Line Element Set (TLE):
1 00734U 64002B   17269.41657387  .00000012  00000-0  23423-4 0  9993
2 00734  99.0071  31.5940 0015306  49.2730 310.9777 14.28806563793831
Source of the keplerian elements: AFSPC